Time,TemperatureF,DewpointF,PressureIn,WindDirection,WindDirectionDegrees,WindSpeedMPH,WindSpeedGustMPH,Humidity,HourlyPrecipIn,Conditions,Clouds,dailyrainin,SoftwareType,DateUTC
2013-05-29 00:00:00,55.4,51.0,29.96,SE,145,0.0,2.0,85,0.00,,,0.01,Wunderground v.1.15,2013-05-29 07:00:00,
2013-05-29 00:10:00,55.3,50.9,29.96,NW,315,0.0,0.0,85,0.00,,,0.00,Wunderground v.1.15,2013-05-29 07:10:00,
2013-05-29 00:15:00,55.3,50.5,29.96,NNW,330,0.0,0.0,84,0.00,,,0.00,Wunderground v.1.15,2013-05-29 07:15:00,
2013-05-29 00:20:00,55.2,50.4,29.96,West,260,0.0,0.0,84,0.00,,,0.00,Wunderground v.1.15,2013-05-29 07:20:00,
2013-05-29 00:25:00,55.2,50.4,29.96,WSW,257,0.0,0.0,84,0.00,,,0.00,Wunderground v.1.15,2013-05-29 07:25:00,
2013-05-29 00:30:00,55.1,50.0,29.95,NE,38,0.0,0.0,83,0.00,,,0.00,Wunderground v.1.15,2013-05-29 07:30:00,
2013-05-29 00:35:00,55.1,50.0,29.95,NE,34,0.0,0.0,83,0.00,,,0.00,Wunderground v.1.15,2013-05-29 07:35:00,
2013-05-29 00:45:00,55.2,49.8,29.95,NW,312,0.0,0.0,82,0.00,,,0.00,Wunderground v.1.15,2013-05-29 07:45:00,
2013-05-29 00:50:00,55.2,49.5,29.95,NW,312,0.0,0.0,81,0.00,,,0.00,Wunderground v.1.15,2013-05-29 07:50:00,
2013-05-29 00:55:00,55.3,49.6,29.95,NW,312,0.0,0.0,81,0.00,,,0.00,Wunderground v.1.15,2013-05-29 07:55:00,
2013-05-29 01:00:00,55.3,49.2,29.95,NW,312,0.0,0.0,80,0.00,,,0.00,Wunderground v.1.15,2013-05-29 08:00:00,
2013-05-29 01:05:00,55.4,49.3,29.95,NW,312,0.0,0.0,80,0.00,,,0.00,Wunderground v.1.15,2013-05-29 08:05:00,
2013-05-29 01:10:00,55.5,49.1,29.96,NW,315,0.0,0.0,79,0.00,,,0.00,Wunderground v.1.15,2013-05-29 08:10:00,
2013-05-29 01:20:00,55.7,48.6,29.96,NW,315,0.0,0.0,77,0.00,,,0.00,Wunderground v.1.15,2013-05-29 08:20:00,
2013-05-29 01:25:00,55.8,48.7,29.96,NW,315,0.0,0.0,77,0.00,,,0.00,Wunderground v.1.15,2013-05-29 08:25:00,
2013-05-29 01:30:00,55.8,48.7,29.95,NW,315,0.0,0.0,77,0.00,,,0.00,Wunderground v.1.15,2013-05-29 08:30:00,
2013-05-29 01:40:00,55.5,49.1,29.95,WSW,257,0.0,0.0,79,0.00,,,0.00,Wunderground v.1.15,2013-05-29 08:40:00,
2013-05-29 01:50:00,55.0,49.3,29.95,NNW,329,0.0,0.0,81,0.00,,,0.00,Wunderground v.1.15,2013-05-29 08:50:00,
2013-05-29 01:55:00,54.8,49.1,29.94,SE,139,0.0,1.0,81,0.00,,,0.00,Wunderground v.1.15,2013-05-29 08:55:00,
2013-05-29 02:00:00,54.6,49.2,29.94,West,267,0.0,0.0,82,0.00,,,0.00,Wunderground v.1.15,2013-05-29 09:00:00,
2013-05-29 02:05:00,54.4,49.0,29.94,NW,311,0.0,0.0,82,0.00,,,0.00,Wunderground v.1.15,2013-05-29 09:05:00,
2013-05-29 02:10:00,54.2,49.1,29.94,NW,311,0.0,0.0,83,0.00,,,0.00,Wunderground v.1.15,2013-05-29 09:10:00,
2013-05-29 02:15:00,54.0,49.3,29.94,NW,306,0.0,1.0,84,0.00,,,0.00,Wunderground v.1.15,2013-05-29 09:15:00,
2013-05-29 02:20:00,53.8,49.1,29.95,NW,325,0.0,1.0,84,0.00,,,0.00,Wunderground v.1.15,2013-05-29 09:20:00,
2013-05-29 02:25:00,53.7,49.0,29.95,NW,304,0.0,1.0,84,0.00,,,0.00,Wunderground v.1.15,2013-05-29 09:25:00,
2013-05-29 02:35:00,53.5,49.1,29.95,NW,326,0.0,0.0,85,0.00,,,0.00,Wunderground v.1.15,2013-05-29 09:35:00,
2013-05-29 02:40:00,53.5,48.8,29.95,NW,326,0.0,0.0,84,0.00,,,0.00,Wunderground v.1.15,2013-05-29 09:40:00,
2013-05-29 02:45:00,53.5,49.1,29.95,NNW,327,0.0,0.0,85,0.00,,,0.00,Wunderground v.1.15,2013-05-29 09:45:00,
2013-05-29 02:55:00,53.7,49.3,29.95,WSW,252,1.0,1.0,85,0.00,,,0.00,Wunderground v.1.15,2013-05-29 09:55:00,
2013-05-29 03:00:00,53.7,49.3,29.95,WSW,253,0.0,0.0,85,0.00,,,0.00,Wunderground v.1.15,2013-05-29 10:00:00,
2013-05-29 03:05:00,53.8,49.1,29.95,WSW,253,0.0,0.0,84,0.00,,,0.00,Wunderground v.1.15,2013-05-29 10:05:00,
2013-05-29 03:10:00,53.9,49.2,29.95,WSW,253,0.0,0.0,84,0.00,,,0.00,Wunderground v.1.15,2013-05-29 10:10:00,
2013-05-29 03:20:00,54.2,47.5,29.95,NNW,338,0.0,0.0,78,0.00,,,0.00,Wunderground v.1.15,2013-05-29 10:20:00,
2013-05-29 03:25:00,54.6,46.5,29.95,NW,313,1.0,1.0,74,0.00,,,0.00,Wunderground v.1.15,2013-05-29 10:25:00,
2013-05-29 03:30:00,54.8,46.7,29.95,West,260,0.0,0.0,74,0.00,,,0.00,Wunderground v.1.15,2013-05-29 10:30:00,
2013-05-29 03:35:00,55.1,45.9,29.95,NW,317,0.0,0.0,71,0.00,,,0.00,Wunderground v.1.15,2013-05-29 10:35:00,
2013-05-29 03:40:00,55.4,46.2,29.95,SW,220,1.0,1.0,71,0.00,,,0.00,Wunderground v.1.15,2013-05-29 10:40:00,
2013-05-29 03:50:00,55.6,46.0,29.94,West,276,1.0,1.0,70,0.00,,,0.00,Wunderground v.1.15,2013-05-29 10:50:00,
2013-05-29 03:55:00,55.7,45.7,29.94,West,275,0.0,1.0,69,0.00,,,0.00,Wunderground v.1.15,2013-05-29 10:55:00,
2013-05-29 04:00:00,55.7,45.7,29.95,WSW,252,0.0,2.0,69,0.00,,,0.00,Wunderground v.1.15,2013-05-29 11:00:00,
2013-05-29 04:10:00,55.9,45.9,29.94,NNW,330,0.0,0.0,69,0.00,,,0.00,Wunderground v.1.15,2013-05-29 11:10:00,
2013-05-29 04:15:00,55.9,46.3,29.94,NNW,332,0.0,4.0,70,0.00,,,0.00,Wunderground v.1.15,2013-05-29 11:15:00,
2013-05-29 04:20:00,55.9,46.3,29.95,WNW,301,1.0,2.0,70,0.00,,,0.00,Wunderground v.1.15,2013-05-29 11:20:00,
2013-05-29 04:30:00,56.0,46.7,29.95,NW,321,1.0,1.0,71,0.00,,,0.00,Wunderground v.1.15,2013-05-29 11:30:00,
2013-05-29 04:35:00,56.1,46.8,29.95,West,276,0.0,1.0,71,0.00,,,0.00,Wunderground v.1.15,2013-05-29 11:35:00,
2013-05-29 04:40:00,56.1,47.2,29.95,North,350,0.0,0.0,72,0.00,,,0.00,Wunderground v.1.15,2013-05-29 11:40:00,
2013-05-29 04:50:00,56.0,47.5,29.95,NW,315,1.0,2.0,73,0.00,,,0.00,Wunderground v.1.15,2013-05-29 11:50:00,
2013-05-29 04:55:00,56.0,47.5,29.95,SW,222,1.0,2.0,73,0.00,,,0.00,Wunderground v.1.15,2013-05-29 11:55:00,
2013-05-29 05:00:00,56.0,47.5,29.95,WNW,302,0.0,0.0,73,0.00,,,0.00,Wunderground v.1.15,2013-05-29 12:00:00,
2013-05-29 05:05:00,56.0,47.5,29.95,WNW,288,1.0,1.0,73,0.00,,,0.00,Wunderground v.1.15,2013-05-29 12:05:00,
2013-05-29 05:15:00,55.9,48.4,29.95,NW,319,0.0,1.0,76,0.00,,,0.00,Wunderground v.1.15,2013-05-29 12:15:00,
2013-05-29 05:20:00,55.9,48.8,29.95,NW,308,1.0,1.0,77,0.00,,,0.00,Wunderground v.1.15,2013-05-29 12:20:00,
2013-05-29 05:25:00,55.7,49.3,29.95,NE,48,1.0,2.0,79,0.00,,,0.00,Wunderground v.1.15,2013-05-29 12:25:00,
2013-05-29 05:30:00,55.5,49.8,29.95,NW,320,0.0,0.0,81,0.00,,,0.00,Wunderground v.1.15,2013-05-29 12:30:00,
2013-05-29 05:35:00,55.2,49.8,29.95,East,98,0.0,0.0,82,0.00,,,0.00,Wunderground v.1.15,2013-05-29 12:35:00,
2013-05-29 05:45:00,54.8,50.1,29.95,NW,323,0.0,0.0,84,0.00,,,0.00,Wunderground v.1.15,2013-05-29 12:45:00,
2013-05-29 05:50:00,54.8,50.4,29.94,NW,310,0.0,0.0,85,0.00,,,0.00,Wunderground v.1.15,2013-05-29 12:50:00,
2013-05-29 05:55:00,54.8,50.4,29.94,SW,217,0.0,0.0,85,0.00,,,0.00,Wunderground v.1.15,2013-05-29 12:55:00,
2013-05-29 06:05:00,54.9,50.5,29.94,SSE,160,0.0,1.0,85,0.00,,,0.00,Wunderground v.1.15,2013-05-29 13:05:00,
2013-05-29 06:10:00,54.8,50.1,29.95,West,265,0.0,0.0,84,0.00,,,0.00,Wunderground v.1.15,2013-05-29 13:10:00,
2013-05-29 06:15:00,54.9,50.2,29.95,WNW,290,1.0,1.0,84,0.00,,,0.00,Wunderground v.1.15,2013-05-29 13:15:00,
2013-05-29 06:20:00,55.0,50.3,29.95,NNW,333,1.0,1.0,84,0.00,,,0.00,Wunderground v.1.15,2013-05-29 13:20:00,
2013-05-29 06:30:00,55.3,50.5,29.95,NW,321,0.0,0.0,84,0.00,,,0.00,Wunderground v.1.15,2013-05-29 13:30:00,
2013-05-29 06:35:00,55.5,51.1,29.96,NNW,344,0.0,0.0,85,0.00,,,0.00,Wunderground v.1.15,2013-05-29 13:35:00,
2013-05-29 06:40:00,55.7,51.3,29.95,NNW,344,0.0,0.0,85,0.00,,,0.00,Wunderground v.1.15,2013-05-29 13:40:00,
2013-05-29 06:45:00,56.2,51.7,29.96,SSE,157,0.0,0.0,85,0.00,,,0.00,Wunderground v.1.15,2013-05-29 13:45:00,
2013-05-29 06:55:00,57.2,52.1,29.96,NW,305,1.0,1.0,83,0.00,,,0.00,Wunderground v.1.15,2013-05-29 13:55:00,
2013-05-29 07:00:00,57.2,51.8,29.96,West,281,2.0,2.0,82,0.00,,,0.00,Wunderground v.1.15,2013-05-29 14:00:00,
2013-05-29 07:05:00,57.1,52.0,29.96,NW,314,1.0,2.0,83,0.00,,,0.00,Wunderground v.1.15,2013-05-29 14:05:00,
2013-05-29 07:10:00,57.2,52.1,29.96,SSE,159,1.0,1.0,83,0.00,,,0.00,Wunderground v.1.15,2013-05-29 14:10:00,
2013-05-29 07:20:00,57.5,52.4,29.96,SW,236,1.0,4.0,83,0.00,,,0.00,Wunderground v.1.15,2013-05-29 14:20:00,
2013-05-29 07:25:00,57.7,52.2,29.96,NW,322,1.0,4.0,82,0.00,,,0.00,Wunderground v.1.15,2013-05-29 14:25:00,
2013-05-29 07:30:00,58.0,52.5,29.96,WNW,297,1.0,1.0,82,0.00,,,0.00,Wunderground v.1.15,2013-05-29 14:30:00,
2013-05-29 07:35:00,58.5,52.7,29.96,NNW,341,1.0,2.0,81,0.00,,,0.00,Wunderground v.1.15,2013-05-29 14:35:00,
2013-05-29 07:45:00,58.8,52.6,29.97,WSW,241,2.0,2.0,80,0.00,,,0.00,Wunderground v.1.15,2013-05-29 14:45:00,
2013-05-29 07:50:00,58.6,52.4,29.97,NNW,329,1.0,1.0,80,0.00,,,0.00,Wunderground v.1.15,2013-05-29 14:50:00,
2013-05-29 07:55:00,58.7,52.9,29.97,West,261,1.0,4.0,81,0.00,,,0.00,Wunderground v.1.15,2013-05-29 14:55:00,
2013-05-29 08:00:00,58.9,53.1,29.96,NNW,331,1.0,1.0,81,0.00,,,0.00,Wunderground v.1.15,2013-05-29 15:00:00,
2013-05-29 08:10:00,59.5,53.3,29.97,SSE,147,2.0,2.0,80,0.00,,,0.00,Wunderground v.1.15,2013-05-29 15:10:00,
2013-05-29 08:15:00,59.6,53.4,29.97,SW,227,2.0,4.0,80,0.00,,,0.00,Wunderground v.1.15,2013-05-29 15:15:00,
2013-05-29 08:25:00,60.0,53.5,29.97,WNW,292,2.0,3.0,79,0.00,,,0.00,Wunderground v.1.15,2013-05-29 15:25:00,
2013-05-29 08:30:00,60.3,53.8,29.97,NW,321,2.0,5.0,79,0.00,,,0.00,Wunderground v.1.15,2013-05-29 15:30:00,
2013-05-29 08:35:00,60.3,53.8,29.97,NW,304,3.0,5.0,79,0.00,,,0.00,Wunderground v.1.15,2013-05-29 15:35:00,
2013-05-29 08:40:00,60.4,53.9,29.97,WSW,255,3.0,3.0,79,0.00,,,0.00,Wunderground v.1.15,2013-05-29 15:40:00,
2013-05-29 08:50:00,60.6,54.0,29.97,WSW,252,1.0,5.0,79,0.00,,,0.00,Wunderground v.1.15,2013-05-29 15:50:00,
2013-05-29 08:55:00,60.3,53.8,29.98,WNW,286,2.0,5.0,79,0.00,,,0.00,Wunderground v.1.15,2013-05-29 15:55:00,
2013-05-29 09:00:00,59.8,53.3,29.98,NNW,345,3.0,3.0,79,0.00,,,0.00,Wunderground v.1.15,2013-05-29 16:00:00,
2013-05-29 09:05:00,59.8,53.6,29.98,North,355,2.0,3.0,80,0.00,,,0.00,Wunderground v.1.15,2013-05-29 16:05:00,
2013-05-29 09:10:00,60.3,53.8,29.97,West,263,1.0,2.0,79,0.00,,,0.00,Wunderground v.1.15,2013-05-29 16:10:00,
2013-05-29 09:15:00,60.3,53.8,29.97,West,270,2.0,4.0,79,0.00,,,0.00,Wunderground v.1.15,2013-05-29 16:15:00,
2013-05-29 09:25:00,60.3,53.8,29.97,West,266,3.0,4.0,79,0.00,,,0.00,Wunderground v.1.15,2013-05-29 16:25:00,
2013-05-29 09:30:00,60.6,54.0,29.97,South,187,2.0,5.0,79,0.00,,,0.00,Wunderground v.1.15,2013-05-29 16:30:00,
2013-05-29 09:35:00,60.8,53.9,29.97,NNW,346,2.0,5.0,78,0.00,,,0.00,Wunderground v.1.15,2013-05-29 16:35:00,
2013-05-29 09:40:00,60.9,54.0,29.97,West,273,3.0,3.0,78,0.00,,,0.00,Wunderground v.1.15,2013-05-29 16:40:00,
2013-05-29 09:50:00,60.9,54.0,29.98,NW,324,3.0,8.0,78,0.00,,,0.00,Wunderground v.1.15,2013-05-29 16:50:00,
2013-05-29 09:55:00,61.0,54.1,29.97,North,5,2.0,8.0,78,0.00,,,0.00,Wunderground v.1.15,2013-05-29 16:55:00,
2013-05-29 10:05:00,61.3,54.0,29.98,SSE,147,2.0,2.0,77,0.00,,,0.00,Wunderground v.1.15,2013-05-29 17:05:00,
2013-05-29 10:10:00,61.3,54.0,29.98,NNW,337,2.0,3.0,77,0.00,,,0.00,Wunderground v.1.15,2013-05-29 17:10:00,
2013-05-29 10:15:00,61.5,53.9,29.97,WNW,287,2.0,8.0,76,0.00,,,0.00,Wunderground v.1.15,2013-05-29 17:15:00,
2013-05-29 10:20:00,61.3,54.0,29.97,SE,136,1.0,2.0,77,0.00,,,0.00,Wunderground v.1.15,2013-05-29 17:20:00,
2013-05-29 10:25:00,61.3,54.0,29.98,WSW,252,2.0,2.0,77,0.00,,,0.00,Wunderground v.1.15,2013-05-29 17:25:00,
2013-05-29 10:30:00,60.9,53.6,29.98,WSW,256,1.0,2.0,77,0.00,,,0.00,Wunderground v.1.15,2013-05-29 17:30:00,
2013-05-29 10:35:00,60.8,53.9,29.98,WSW,253,1.0,5.0,78,0.00,,,0.00,Wunderground v.1.15,2013-05-29 17:35:00,
2013-05-29 10:45:00,60.5,53.3,29.98,WNW,286,1.0,1.0,77,0.00,,,0.00,Wunderground v.1.15,2013-05-29 17:45:00,
2013-05-29 10:50:00,60.2,53.7,29.98,WSW,255,1.0,2.0,79,0.00,,,0.00,Wunderground v.1.15,2013-05-29 17:50:00,
2013-05-29 11:00:00,59.6,53.4,29.99,NW,323,1.0,2.0,80,0.00,,,0.00,Wunderground v.1.15,2013-05-29 18:00:00,
2013-05-29 11:05:00,59.4,53.2,29.99,West,259,1.0,2.0,80,0.00,,,0.00,Wunderground v.1.15,2013-05-29 18:05:00,
2013-05-29 11:10:00,59.2,53.4,29.99,West,267,1.0,1.0,81,0.00,,,0.00,Wunderground v.1.15,2013-05-29 18:10:00,
2013-05-29 11:15:00,59.3,53.5,29.99,West,259,1.0,1.0,81,0.00,,,0.00,Wunderground v.1.15,2013-05-29 18:15:00,
2013-05-29 11:20:00,59.4,53.2,29.99,West,278,1.0,1.0,80,0.00,,,0.00,Wunderground v.1.15,2013-05-29 18:20:00,
2013-05-29 11:25:00,60.2,53.7,29.98,WSW,254,1.0,2.0,79,0.00,,,0.00,Wunderground v.1.15,2013-05-29 18:25:00,
2013-05-29 11:35:00,61.2,53.9,29.98,West,262,2.0,3.0,77,0.00,,,0.00,Wunderground v.1.15,2013-05-29 18:35:00,
2013-05-29 11:40:00,62.2,54.5,29.97,West,259,2.0,2.0,76,0.00,,,0.00,Wunderground v.1.15,2013-05-29 18:40:00,
2013-05-29 11:45:00,63.2,54.4,29.97,SSW,207,2.0,2.0,73,0.00,,,0.00,Wunderground v.1.15,2013-05-29 18:45:00,
2013-05-29 11:50:00,63.5,54.7,29.97,SSW,202,2.0,2.0,73,0.00,,,0.00,Wunderground v.1.15,2013-05-29 18:50:00,
2013-05-29 11:55:00,63.8,53.8,29.97,West,269,2.0,5.0,70,0.00,,,0.00,Wunderground v.1.15,2013-05-29 18:55:00,
2013-05-29 12:00:00,63.9,53.9,29.97,SSE,151,2.0,2.0,70,0.00,,,0.00,Wunderground v.1.15,2013-05-29 19:00:00,
2013-05-29 12:10:00,64.5,54.5,29.98,NNW,336,2.0,5.0,70,0.00,,,0.00,Wunderground v.1.15,2013-05-29 19:10:00,
2013-05-29 12:15:00,64.7,53.5,29.98,ESE,105,2.0,5.0,67,0.00,,,0.00,Wunderground v.1.15,2013-05-29 19:15:00,
2013-05-29 12:20:00,64.7,53.9,29.98,WNW,290,2.0,2.0,68,0.00,,,0.00,Wunderground v.1.15,2013-05-29 19:20:00,
2013-05-29 12:30:00,67.0,54.8,29.97,WSW,249,1.0,2.0,65,0.00,,,0.00,Wunderground v.1.15,2013-05-29 19:30:00,
2013-05-29 12:35:00,67.3,54.3,29.98,SSE,152,1.0,2.0,63,0.00,,,0.00,Wunderground v.1.15,2013-05-29 19:35:00,
2013-05-29 12:40:00,67.0,54.4,29.98,WSW,258,1.0,4.0,64,0.00,,,0.00,Wunderground v.1.15,2013-05-29 19:40:00,
2013-05-29 12:50:00,66.3,54.2,29.97,SW,228,1.0,2.0,65,0.00,,,0.00,Wunderground v.1.15,2013-05-29 19:50:00,
2013-05-29 12:55:00,65.4,54.6,29.97,WNW,292,2.0,2.0,68,0.00,,,0.00,Wunderground v.1.15,2013-05-29 19:55:00,
2013-05-29 13:00:00,65.9,54.6,29.98,WSW,257,2.0,2.0,67,0.00,,,0.00,Wunderground v.1.15,2013-05-29 20:00:00,
2013-05-29 13:10:00,67.6,54.6,29.97,East,89,1.0,1.0,63,0.00,,,0.00,Wunderground v.1.15,2013-05-29 20:10:00,
2013-05-29 13:15:00,67.8,54.7,29.97,East,82,1.0,1.0,63,0.00,,,0.00,Wunderground v.1.15,2013-05-29 20:15:00,
2013-05-29 13:20:00,67.9,54.4,29.96,West,267,2.0,2.0,62,0.00,,,0.00,Wunderground v.1.15,2013-05-29 20:20:00,
2013-05-29 13:30:00,67.3,54.3,29.96,WSW,255,2.0,2.0,63,0.00,,,0.00,Wunderground v.1.15,2013-05-29 20:30:00,
2013-05-29 13:35:00,67.7,53.8,29.95,SSE,168,2.0,2.0,61,0.00,,,0.00,Wunderground v.1.15,2013-05-29 20:35:00,
2013-05-29 13:40:00,68.6,53.7,29.95,SSE,157,1.0,1.0,59,0.00,,,0.00,Wunderground v.1.15,2013-05-29 20:40:00,
2013-05-29 13:45:00,68.5,53.6,29.95,NNW,344,2.0,3.0,59,0.00,,,0.00,Wunderground v.1.15,2013-05-29 20:45:00,
2013-05-29 13:55:00,67.8,52.9,29.95,WSW,256,2.0,2.0,59,0.00,,,0.00,Wunderground v.1.15,2013-05-29 20:55:00,
2013-05-29 14:00:00,68.3,53.4,29.95,WSW,237,2.0,2.0,59,0.00,,,0.00,Wunderground v.1.15,2013-05-29 21:00:00,
2013-05-29 14:10:00,67.4,53.0,29.95,West,279,3.0,3.0,60,0.00,,,0.00,Wunderground v.1.15,2013-05-29 21:10:00,
2013-05-29 14:15:00,67.7,52.9,29.95,WSW,257,2.0,3.0,59,0.00,,,0.00,Wunderground v.1.15,2013-05-29 21:15:00,
2013-05-29 14:20:00,67.6,53.7,29.94,North,5,2.0,2.0,61,0.00,,,0.00,Wunderground v.1.15,2013-05-29 21:20:00,
2013-05-29 14:25:00,68.6,53.7,29.95,SE,128,2.0,5.0,59,0.00,,,0.00,Wunderground v.1.15,2013-05-29 21:25:00,
2013-05-29 14:35:00,69.7,54.7,29.94,WSW,255,2.0,3.0,59,0.00,,,0.00,Wunderground v.1.15,2013-05-29 21:35:00,
2013-05-29 14:40:00,69.7,54.7,29.94,West,267,2.0,2.0,59,0.00,,,0.00,Wunderground v.1.15,2013-05-29 21:40:00,
2013-05-29 14:45:00,69.3,54.4,29.95,WSW,244,2.0,3.0,59,0.00,,,0.00,Wunderground v.1.15,2013-05-29 21:45:00,
2013-05-29 14:50:00,69.3,54.4,29.95,SW,229,2.0,2.0,59,0.00,,,0.00,Wunderground v.1.15,2013-05-29 21:50:00,
2013-05-29 14:55:00,69.0,54.1,29.94,West,259,2.0,2.0,59,0.00,,,0.00,Wunderground v.1.15,2013-05-29 21:55:00,
2013-05-29 15:00:00,69.2,54.3,29.94,West,261,2.0,2.0,59,0.00,,,0.00,Wunderground v.1.15,2013-05-29 22:00:00,
2013-05-29 15:10:00,70.1,54.6,29.94,SSE,158,1.0,3.0,58,0.00,,,0.00,Wunderground v.1.15,2013-05-29 22:10:00,
2013-05-29 15:15:00,70.4,54.4,29.94,NNE,24,1.0,3.0,57,0.00,,,0.00,Wunderground v.1.15,2013-05-29 22:15:00,
2013-05-29 15:20:00,71.0,54.0,29.94,West,277,1.0,5.0,55,0.00,,,0.00,Wunderground v.1.15,2013-05-29 22:20:00,
2013-05-29 15:25:00,70.4,54.0,29.94,West,267,1.0,5.0,56,0.00,,,0.00,Wunderground v.1.15,2013-05-29 22:25:00,
2013-05-29 15:35:00,70.4,54.0,29.94,West,269,2.0,2.0,56,0.00,,,0.00,Wunderground v.1.15,2013-05-29 22:35:00,
2013-05-29 15:40:00,70.4,54.0,29.94,SW,223,1.0,1.0,56,0.00,,,0.00,Wunderground v.1.15,2013-05-29 22:40:00,
2013-05-29 15:45:00,70.1,53.7,29.94,West,267,2.0,2.0,56,0.00,,,0.00,Wunderground v.1.15,2013-05-29 22:45:00,
2013-05-29 15:50:00,70.2,53.8,29.94,WSW,249,2.0,3.0,56,0.00,,,0.00,Wunderground v.1.15,2013-05-29 22:50:00,
2013-05-29 15:55:00,70.6,54.1,29.93,West,277,1.0,3.0,56,0.00,,,0.00,Wunderground v.1.15,2013-05-29 22:55:00,
2013-05-29 16:05:00,71.7,53.7,29.93,West,261,1.0,1.0,53,0.00,,,0.00,Wunderground v.1.15,2013-05-29 23:05:00,
2013-05-29 16:10:00,71.3,52.8,29.93,West,281,1.0,1.0,52,0.00,,,0.00,Wunderground v.1.15,2013-05-29 23:10:00,
2013-05-29 16:15:00,71.2,53.2,29.93,NW,311,2.0,4.0,53,0.00,,,0.00,Wunderground v.1.15,2013-05-29 23:15:00,
2013-05-29 16:20:00,71.1,53.1,29.93,WSW,256,2.0,2.0,53,0.00,,,0.00,Wunderground v.1.15,2013-05-29 23:20:00,
2013-05-29 16:25:00,71.6,53.0,29.93,South,179,1.0,2.0,52,0.00,,,0.00,Wunderground v.1.15,2013-05-29 23:25:00,
2013-05-29 16:35:00,71.7,53.1,29.93,NW,321,1.0,1.0,52,0.00,,,0.00,Wunderground v.1.15,2013-05-29 23:35:00,
2013-05-29 16:40:00,71.2,52.7,29.92,West,265,2.0,2.0,52,0.00,,,0.00,Wunderground v.1.15,2013-05-29 23:40:00,
2013-05-29 16:45:00,71.0,53.5,29.93,SE,128,2.0,2.0,54,0.00,,,0.00,Wunderground v.1.15,2013-05-29 23:45:00,
2013-05-29 16:50:00,71.3,53.8,29.93,West,260,1.0,1.0,54,0.00,,,0.00,Wunderground v.1.15,2013-05-29 23:50:00,
2013-05-29 16:55:00,71.8,53.7,29.93,West,271,1.0,3.0,53,0.00,,,0.00,Wunderground v.1.15,2013-05-29 23:55:00,
2013-05-29 17:05:00,71.1,53.6,29.93,ESE,108,1.0,3.0,54,0.00,,,0.00,Wunderground v.1.15,2013-05-30 00:05:00,
2013-05-29 17:10:00,71.4,52.9,29.93,North,360,1.0,4.0,52,0.00,,,0.00,Wunderground v.1.15,2013-05-30 00:10:00,
2013-05-29 17:15:00,70.8,52.3,29.93,SSE,166,1.0,4.0,52,0.00,,,0.00,Wunderground v.1.15,2013-05-30 00:15:00,
2013-05-29 17:25:00,70.6,53.6,29.93,WSW,252,1.0,2.0,55,0.00,,,0.00,Wunderground v.1.15,2013-05-30 00:25:00,
2013-05-29 17:30:00,70.4,53.0,29.93,WNW,302,1.0,2.0,54,0.00,,,0.00,Wunderground v.1.15,2013-05-30 00:30:00,
2013-05-29 17:40:00,69.9,51.5,29.92,NW,306,1.0,1.0,52,0.00,,,0.00,Wunderground v.1.15,2013-05-30 00:40:00,
2013-05-29 17:45:00,69.6,50.7,29.92,NW,306,2.0,4.0,51,0.00,,,0.00,Wunderground v.1.15,2013-05-30 00:45:00,
2013-05-29 17:55:00,69.5,50.6,29.92,NNW,344,2.0,2.0,51,0.00,,,0.00,Wunderground v.1.15,2013-05-30 00:55:00,
2013-05-29 18:00:00,69.1,50.7,29.92,NNW,342,2.0,2.0,52,0.00,,,0.00,Wunderground v.1.15,2013-05-30 01:00:00,
2013-05-29 18:10:00,68.7,49.8,29.92,WNW,303,3.0,3.0,51,0.00,,,0.00,Wunderground v.1.15,2013-05-30 01:10:00,
2013-05-29 18:20:00,68.1,49.8,29.92,WNW,294,3.0,3.0,52,0.00,,,0.00,Wunderground v.1.15,2013-05-30 01:20:00,
2013-05-29 18:30:00,68.1,49.8,29.92,SSW,194,2.0,3.0,52,0.00,,,0.00,Wunderground v.1.15,2013-05-30 01:30:00,
2013-05-29 18:45:00,67.1,48.9,29.92,WNW,284,2.0,2.0,52,0.00,,,0.00,Wunderground v.1.15,2013-05-30 01:45:00,
2013-05-29 19:35:00,64.3,47.3,29.92,West,272,0.0,0.0,54,0.00,,,0.00,Wunderground v.1.15,2013-05-30 02:35:00,
2013-05-29 20:10:00,62.4,47.0,29.92,South,186,1.0,1.0,57,0.00,,,0.00,Wunderground v.1.15,2013-05-30 03:10:00,
2013-05-29 20:35:00,60.9,46.0,29.92,WSW,245,0.0,4.0,58,0.00,,,0.00,Wunderground v.1.15,2013-05-30 03:35:00,
2013-05-29 21:10:00,59.5,44.7,29.93,South,185,1.0,1.0,58,0.00,,,0.00,Wunderground v.1.15,2013-05-30 04:10:00,
2013-05-29 21:30:00,58.3,45.3,29.94,SW,226,0.0,0.0,62,0.00,,,0.00,Wunderground v.1.15,2013-05-30 04:30:00,
2013-05-29 21:55:00,57.3,45.6,29.94,WNW,301,0.0,0.0,65,0.00,,,0.00,Wunderground v.1.15,2013-05-30 04:55:00,
2013-05-29 22:05:00,56.8,46.0,29.95,WNW,301,0.0,0.0,67,0.00,,,0.00,Wunderground v.1.15,2013-05-30 05:05:00,
2013-05-29 22:10:00,56.4,46.0,29.95,WNW,300,0.0,0.0,68,0.00,,,0.00,Wunderground v.1.15,2013-05-30 05:10:00,
2013-05-29 22:15:00,56.0,45.6,29.95,WNW,300,0.0,0.0,68,0.00,,,0.00,Wunderground v.1.15,2013-05-30 05:15:00,
2013-05-29 22:20:00,55.8,46.2,29.95,WNW,300,0.0,0.0,70,0.00,,,0.00,Wunderground v.1.15,2013-05-30 05:20:00,
2013-05-29 22:25:00,55.6,46.0,29.95,WNW,300,0.0,0.0,70,0.00,,,0.00,Wunderground v.1.15,2013-05-30 05:25:00,
2013-05-29 22:35:00,55.8,46.2,29.95,NW,315,0.0,0.0,70,0.00,,,0.00,Wunderground v.1.15,2013-05-30 05:35:00,
2013-05-29 22:40:00,55.8,46.5,29.95,NW,319,0.0,1.0,71,0.00,,,0.00,Wunderground v.1.15,2013-05-30 05:40:00,
2013-05-29 22:50:00,55.6,46.7,29.95,WSW,242,0.0,0.0,72,0.00,,,0.00,Wunderground v.1.15,2013-05-30 05:50:00,
2013-05-29 22:55:00,55.4,46.5,29.95,South,188,0.0,0.0,72,0.00,,,0.00,Wunderground v.1.15,2013-05-30 05:55:00,
2013-05-29 23:00:00,55.2,46.3,29.95,South,188,0.0,0.0,72,0.00,,,0.00,Wunderground v.1.15,2013-05-30 06:00:00,
2013-05-29 23:10:00,54.6,46.5,29.95,South,190,0.0,0.0,74,0.00,,,0.00,Wunderground v.1.15,2013-05-30 06:10:00,
2013-05-29 23:15:00,54.5,46.7,29.95,SW,216,0.0,0.0,75,0.00,,,0.00,Wunderground v.1.15,2013-05-30 06:15:00,
2013-05-29 23:20:00,54.3,46.5,29.95,SW,216,0.0,0.0,75,0.00,,,0.00,Wunderground v.1.15,2013-05-30 06:20:00,
2013-05-29 23:25:00,54.2,46.4,29.95,SW,231,0.0,0.0,75,0.00,,,0.00,Wunderground v.1.15,2013-05-30 06:25:00,
2013-05-29 23:35:00,54.0,46.3,29.95,SSE,149,0.0,0.0,75,0.00,,,0.00,Wunderground v.1.15,2013-05-30 06:35:00,
2013-05-29 23:40:00,54.0,46.3,29.95,WNW,292,0.0,1.0,75,0.00,,,0.00,Wunderground v.1.15,2013-05-30 06:40:00,
2013-05-29 23:50:00,54.2,46.8,29.96,WNW,296,0.0,0.0,76,0.00,,,0.00,Wunderground v.1.15,2013-05-30 06:50:00,
2013-05-29 23:55:00,54.4,46.6,29.96,NW,311,0.0,0.0,75,0.00,,,0.00,Wunderground v.1.15,2013-05-30 06:55:00,